Location: *
(2.5500°S, 65.9667°W)
Time: 11:55:29
(UTC+00:00)

SL-4 R/B - Pass Details

Date: 26 October 2021
Orbit: 427 x 661 km, 51.6° (Epoch: 28 November)

Event Time Altitude Azimuth Distance (km) Brightness Sun altitude
Rises 22:37:34 0° 199° (SSW) 2,750 6.1 -6.7°
Reaches altitude 10° 22:39:57 10° 188° (S) 1,893 5.1 -7.3°
Maximum altitude 22:43:50 31° 125° (SE) 1,062 3.1 -8.2°
Enters shadow 22:47:44 11° 64° (ENE) 1,938 4.2 -9.2°
